Location: Cronhütte
(48.9135°N, 9.6869°E)
Time: 20:44:22
(UTC+00:00)

Cosmos 676 Rocket - Pass Details

Date: 23 May 2024
Orbit: 752 x 781 km, 74.0° (Epoch: 24 June)

Event Time Altitude Azimuth Distance (km) Brightness Sun altitude
Exits shadow 00:42:54 32° 203° (SSW) 1,306 4.6 -17.9°
Maximum altitude 00:45:25 89° 288° (WNW) 788 4.0 -17.8°
Drops below altitude 10° 00:50:47 10° 23° (NNE) 2,348 7.8 -17.4°
Sets 00:53:11 0° 24° (NNE) 3,280 9.1 -17.3°
